This is the latest recevied weather packets stored in our database for station/object KC3DGM. If no packets are shown the sender has not sent any weather packets the latest 10 day(s).
| Time | Temp. | Humidity | Pressure | Rain* | Wind** | Luminosity | Snow |
|---|---|---|---|---|---|---|---|
| 1777863418 | 5° C | 84% | 983.9 hPa | 0 mm | - | 0 W/m² | - |
| 1777863115 | 5.56° C | 84% | 983.9 hPa | 0 mm | - | 0 W/m² | - |
| 1777862812 | 5.56° C | 84% | 983.9 hPa | 0 mm | - | 0 W/m² | - |
| 1777862508 | 5.56° C | 84% | 983.9 hPa | 0 mm | - | 0 W/m² | - |
| 1777862205 | 5.56° C | 84% | 983.9 hPa | 0 mm | - | 0 W/m² | - |
| 1777861901 | 6.11° C | 85% | 984.1 hPa | 0 mm | - | 0 W/m² | - |
| 1777861597 | 6.11° C | 84% | 984 hPa | 0 mm | - | 0 W/m² | - |
| 1777861293 | 6.11° C | 83% | 983.9 hPa | 0 mm | - | 0 W/m² | - |
| 1777860992 | 6.11° C | 83% | 983.8 hPa | 0 mm | - | 0 W/m² | - |
| 1777860688 | 6.11° C | 82% | 983.8 hPa | 0 mm | - | 0 W/m² | - |
| 1777860385 | 6.67° C | 80% | 984 hPa | 0 mm | - | 0 W/m² | - |
| 1777860081 | 6.67° C | 80% | 983.8 hPa | 0 mm | - | 0 W/m² | - |
| 1777859778 | 6.67° C | 79% | 984 hPa | 0 mm | - | 0 W/m² | - |
| 1777859474 | 6.67° C | 79% | 983.9 hPa | 0 mm | - | 0 W/m² | - |
| 1777859170 | 7.22° C | 79% | 983.9 hPa | 0 mm | - | 0 W/m² | - |
| 1777858867 | 7.22° C | 78% | 983.7 hPa | 0 mm | - | 0 W/m² | - |
| 1777858565 | 7.22° C | 76% | 983.7 hPa | 0 mm | - | 0 W/m² | - |
| 1777858262 | 7.22° C | 75% | 983.8 hPa | 0 mm | - | 0 W/m² | - |
| 1777857959 | 7.78° C | 75% | 983.8 hPa | 0 mm | - | 0 W/m² | - |
| 1777857657 | 7.78° C | 73% | 983.6 hPa | 0 mm | - | 0 W/m² | - |
| 1777857353 | 8.33° C | 74% | 983.7 hPa | 0 mm | - | 0 W/m² | - |
| 1777857049 | 8.33° C | 73% | 983.5 hPa | 0 mm | - | 0 W/m² | - |
| 1777856745 | 8.89° C | 71% | 983.5 hPa | 0 mm | - | 0 W/m² | - |
| 1777856442 | 9.44° C | 70% | 983.8 hPa | 0 mm | - | 0 W/m² | - |
| 1777856138 | 10° C | 67% | 983.6 hPa | 0 mm | - | 0 W/m² | - |
* Rain latest hour (hover to see other rain measurements)
** Current wind speed in m/s (hover to see current wind gust speed)